User: anonymous   Login
Location: Unspecified
(0.0000°N, 0.0000°E)
Time: 19:16:29
(UTC+00:00)
Language:

ISIS 1 - Orbit

View from above orbital plane
View from above orbital plane
View from above satellite
View from above satellite

Ground track
Ground track

The orbit data is extracted from the following two-line orbital elements,

1  3669U 69009A   18112.95488872 +.00000045 +00000-0 +15734-4 0  9995
2  3669 088.4177 113.9995 1712497 131.8896 244.1554 11.29456658023596
Epoch (UTC): 22 April 2018 22:55:02
Eccentricity: 0.1712497
inclination: 88.4177°
perigee height: 576 km
apogee height: 3450 km
right ascension of ascending node: 113.9995°
argument of perigee: 131.8896°
revolutions per day: 11.29456658
mean anomaly at epoch: 244.1554°
orbit number at epoch: 2359

The dashed part of the orbit path shows where the satellite is in the earth's shadow,  

DLR